This is the latest recevied weather packets stored in our database for station/object SV9TNF-1. If no packets are shown the sender has not sent any weather packets the latest 10 day(s).
| Time | Temp. | Humidity | Pressure | Rain* | Wind** | Luminosity | Snow |
|---|---|---|---|---|---|---|---|
| 1777770964 | 10.56° C | 72% | 1003.1 hPa | 0 mm | 0 m/s | - | - |
| 1777770663 | 10.56° C | 73% | 1003.1 hPa | 0 mm | 0 m/s | - | - |
| 1777770363 | 11.11° C | 74% | 1003.1 hPa | 0 mm | 0 m/s | - | - |
| 1777770063 | 11.11° C | 74% | 1003.1 hPa | 1.27 mm | 0.45 m/s, 126° | - | - |
| 1777769763 | 11.67° C | 71% | 1003.1 hPa | 1.27 mm | 3.13 m/s, 126° | - | - |
| 1777769463 | 12.22° C | 63% | 1003.1 hPa | 0 mm | 4.02 m/s, 128° | - | - |
| 1777769163 | 12.78° C | 61% | 1003.1 hPa | 0 mm | 3.13 m/s, 142° | - | - |
| 1777768863 | 12.78° C | 60% | 1003.1 hPa | 0 mm | 6.26 m/s, 340° | - | - |
| 1777768562 | 12.78° C | 59% | 1003.1 hPa | 0 mm | 3.58 m/s, 1° | - | - |
| 1777768263 | 12.78° C | 61% | 1003.1 hPa | 0 mm | 4.47 m/s, 333° | - | - |
| 1777767963 | 12.78° C | 60% | 1003.1 hPa | 0 mm | 2.24 m/s, 141° | - | - |
| 1777767662 | 12.78° C | 59% | 1002.7 hPa | 0 mm | 4.02 m/s, 120° | - | - |
| 1777767362 | 12.78° C | 62% | 1002.7 hPa | 0 mm | 1.79 m/s, 133° | - | - |
| 1777767062 | 12.78° C | 61% | 1002.7 hPa | 0 mm | 3.58 m/s, 135° | - | - |
| 1777766762 | 12.78° C | 61% | 1002.7 hPa | 0 mm | 2.68 m/s, 355° | - | - |
| 1777766462 | 12.78° C | 63% | 1003.1 hPa | 0 mm | 2.68 m/s, 141° | - | - |
| 1777766162 | 12.78° C | 63% | 1003.1 hPa | 0 mm | 6.71 m/s, 340° | - | - |
| 1777765862 | 12.78° C | 63% | 1003.1 hPa | 0 mm | 2.24 m/s, 174° | - | - |
| 1777765561 | 12.78° C | 63% | 1003.1 hPa | 0 mm | 6.71 m/s, 142° | - | - |
| 1777765261 | 12.78° C | 64% | 1003.1 hPa | 0 mm | 4.92 m/s, 143° | - | - |
| 1777764962 | 12.22° C | 63% | 1003.1 hPa | 0 mm | 1.79 m/s, 133° | - | - |
| 1777764661 | 12.22° C | 64% | 1003.1 hPa | 0 mm | 4.02 m/s, 126° | - | - |
| 1777764361 | 12.22° C | 64% | 1003.1 hPa | 0 mm | 4.47 m/s, 129° | - | - |
| 1777764061 | 12.22° C | 64% | 1003.1 hPa | 0 mm | 3.58 m/s, 134° | - | - |
| 1777763761 | 12.22° C | 62% | 1003.1 hPa | 0 mm | 3.58 m/s, 124° | - | - |
* Rain latest hour (hover to see other rain measurements)
** Current wind speed in m/s (hover to see current wind gust speed)